This demonstration page uses our WeatherBlox Daily Observations layout. Learn more.

Left ArrowRight Arrow

Hourly Observations for December 6, 2019

Temp ( °F °C ) Dew Point ( °F °C ) Humidity (%) Winds ( mph kmh ) Pressure ( in mb ) Visibility ( mi km ) Precip ( " mm )
12:52 am 00:52 Cloudy 32 0 28 -2.2 85 85 NNW 17 28 30.26 1025 10 16 0.00 0.00
1:52 am 01:52 Cloudy 32 0 27 -2.8 82 82 N 20 31 30.28 1025 10 16 0.00 0.00
2:52 am 02:52 Cloudy 31 -0.6 25 -3.9 79 79 N 24 39 30.32 1027 10 16 0.00 0.00
3:50 am 03:50 Partly Cloudy 28 -2 23 -5 80 80 N 20 31 30.38 1029 10 16 0.00 0.00
3:52 am 03:52 Partly Cloudy 29 -1.7 23 -5 78 78 N 21 33 30.34 1028 10 16 0.00 0.00
4:15 am 04:15 Mostly Cloudy 29 -1.7 23 -5 78 78 N 22 35 30.39 1029 10 16 0.00 0.00
4:39 am 04:39 Partly Cloudy 28 -2.2 22 -5.6 78 78 N 22 35 30.39 1029 10 16 0.00 0.00
4:52 am 04:52 Mostly Clear 28 -2.2 23 -5 81 81 N 21 33 30.36 1028 10 16 0.00 0.00
5:52 am 05:52 Mostly Clear 26 -3.3 21 -6.1 81 81 N 15 24 30.37 1029 10 16 0.00 0.00
6:52 am 06:52 Mostly Clear 24 -4.4 18 -7.8 77 77 N 12 19 30.40 1030 10 16 0.00 0.00
7:52 am 07:52 Mostly Sunny 22 -5.6 16 -8.9 78 78 N 9 15 30.43 1031 10 16 0.00 0.00
8:52 am 08:52 Partly Cloudy 24 -4.4 17 -8.3 75 75 NNE 7 11 30.45 1031 10 16 0.00 0.00
9:52 am 09:52 Mostly Cloudy 26 -3.3 20 -6.7 78 78 N 13 20 30.48 1032 10 16 0.00 0.00
10:52 am 10:52 Mostly Cloudy 28 -2.2 21 -6.1 75 75 N 9 15 30.49 1033 10 16 0.00 0.00
11:52 am 11:52 Mostly Cloudy 29 -1.7 21 -6.1 72 72 N 8 13 30.48 1032 10 16 0.00 0.00
12:52 pm 12:52 Mostly Cloudy 31 -0.6 22 -5.6 69 69 NNE 7 11 30.44 1031 10 16 0.00 0.00
1:52 pm 13:52 Mostly Cloudy 32 0 22 -5.6 66 66 NNE 6 9 30.42 1030 10 16 0.00 0.00
2:52 pm 14:52 Partly Cloudy 34 1.1 23 -5 64 64 N 5 7 30.41 1030 10 16 0.00 0.00
3:52 pm 15:52 Partly Cloudy 34 1.1 23 -5 64 64 Calm 30.40 1030 10 16 0.00 0.00
4:52 pm 16:52 Sunny 33 0.6 22 -5.6 64 64 SE 5 7 30.40 1030 10 16 0.00 0.00
5:52 pm 17:52 Clear 28 -2.2 21 -6.1 75 75 SE 8 13 30.41 1030 10 16 0.00 0.00
6:52 pm 18:52 Clear 29 -1.7 21 -6.1 72 72 SSE 7 11 30.40 1029 10 16 0.00 0.00
7:52 pm 19:52 Clear 27 -2.8 20 -6.7 75 75 SSE 8 13 30.38 1029 10 16 0.00 0.00
8:52 pm 20:52 Mostly Clear 29 -1.7 21 -6.1 72 72 S 9 15 30.37 1028 10 16 0.00 0.00
9:52 pm 21:52 Partly Cloudy 28 -2.2 21 -6.1 75 75 SSE 10 17 30.36 1028 10 16 0.00 0.00
10:52 pm 22:52 Partly Cloudy 27 -2.8 21 -6.1 78 78 SSE 8 13 30.36 1028 10 16 0.00 0.00
11:52 pm 23:52 Clear 29 -1.7 22 -5.6 75 75 S 12 19 30.34 1028 10 16 0.00 0.00

Powered by AerisWeather